This is the latest recevied weather packets stored in our database for station/object K4MGY-13. If no packets are shown the sender has not sent any weather packets the latest 10 day(s).
| Time | Temp. | Humidity | Pressure | Rain* | Wind** | Luminosity | Snow |
|---|---|---|---|---|---|---|---|
| 1777743574 | 17.78° C | 37% | 1016.3 hPa | 0 mm | - | - | - |
| 1777743273 | 17.78° C | 39% | 1015.9 hPa | 0 mm | - | - | - |
| 1777742973 | 18.33° C | 35% | 1016.3 hPa | 0 mm | - | - | - |
| 1777742673 | 17.78° C | 39% | 1016.4 hPa | 0 mm | - | - | - |
| 1777742374 | 17.78° C | 36% | 1016.3 hPa | 0 mm | - | - | - |
| 1777742074 | 18.33° C | 35% | 1016.3 hPa | 0 mm | - | - | - |
| 1777741777 | 17.78° C | 39% | 1016.3 hPa | 0 mm | - | - | - |
| 1777741475 | 17.78° C | 38% | 1016.3 hPa | 0 mm | - | - | - |
| 1777740843 | 17.22° C | 39% | 1016.9 hPa | 0 mm | - | - | - |
| 1777740513 | 17.22° C | 38% | 1016.6 hPa | 0 mm | - | - | - |
| 1777740213 | 17.22° C | 38% | 1016.8 hPa | 0 mm | - | - | - |
| 1777739885 | 16.67° C | 41% | 1016.6 hPa | 0 mm | - | - | - |
| 1777739583 | 16.67° C | 38% | 1016.9 hPa | 0 mm | - | - | - |
| 1777739254 | 16.67° C | 39% | 1016.9 hPa | 0 mm | - | - | - |
| 1777738923 | 16.67° C | 37% | 1016.9 hPa | 0 mm | - | - | - |
| 1777738593 | 16.67° C | 40% | 1017.1 hPa | 0 mm | - | - | - |
| 1777738263 | 16.67° C | 41% | 1017.1 hPa | 0 mm | - | - | - |
| 1777737966 | 16.67° C | 41% | 1017.1 hPa | 0 mm | - | - | - |
| 1777737633 | 16.67° C | 44% | 1016.9 hPa | 0 mm | - | - | - |
| 1777737333 | 16.11° C | 43% | 1017.1 hPa | 0 mm | - | - | - |
| 1777737034 | 16.11° C | 41% | 1016.9 hPa | 0 mm | - | - | - |
| 1777736703 | 16.11° C | 45% | 1016.9 hPa | 0 mm | - | - | - |
| 1777736373 | 15.56° C | 41% | 1017.1 hPa | 0 mm | - | - | - |
| 1777736043 | 15.56° C | 42% | 1016.9 hPa | 0 mm | - | - | - |
| 1777735713 | 15.56° C | 44% | 1017.1 hPa | 0 mm | - | - | - |
* Rain latest hour (hover to see other rain measurements)
** Current wind speed in m/s (hover to see current wind gust speed)